Location: Basse Occidentale du Courleau
(48.3833°N, 4.8333°W)
Time: 09:34:38
(UTC+00:00)

COSMOS 2455 - Pass Details

Date: 05 July 2020
Orbit: 898 x 911 km, 67.1° (Epoch: 08 August)

Event Time Altitude Azimuth Distance (km) Brightness Sun altitude
Rises 23:24:51 0° 326° (NNW) 3,551 7.3 -17.7°
Reaches altitude 10° 23:27:30 10° 333° (NNW) 2,607 6.4 -17.8°
Maximum altitude 23:33:19 46° 46° (NE) 1,206 3.7 -18.0°
Enters shadow 23:38:24 13° 117° (ESE) 2,355 4.7 -18.2°
